Location: Newark
(34.7667°N, 118.4167°W)
Time: 09:56:38
(UTC+00:00)

Tiangong 2 - Visible Passes

Search period start: 22 March 2019 00:00
Search period end: 01 April 2019 00:00
Orbit: 379 x 390 km, 42.8° (Epoch: 22 March)

Date Brightness Start Highest point End Pass type
(mag) Time Alt. Az. Time Alt. Az. Time Alt. Az.
22 Mar 1.8 12:24:08 42° NNW 12:24:45 49° NNE 12:27:50 10° E visible
23 Mar 4.6 11:27:47 12° E 11:27:47 12° E 11:28:03 10° E visible
23 Mar 1.5 13:00:02 19° W 13:01:58 43° SSW 13:05:00 10° SE visible
24 Mar 2.6 12:03:51 32° ESE 12:03:51 32° ESE 12:05:42 10° ESE visible
25 Mar 2.7 12:40:06 21° SSW 12:40:06 21° SSW 12:42:06 10° SSE visible
28 Mar 3.5 03:11:48 10° SSE 03:12:06 11° SSE 03:12:06 11° SSE visible
29 Mar 2.6 03:47:01 10° SW 03:48:39 26° SSW 03:48:39 26° SSW visible
30 Mar 2.3 02:48:02 10° SSW 02:50:38 24° SE 02:52:45 13° E visible
30 Mar 4.0 04:24:13 10° W 04:25:01 16° W 04:25:01 16° W visible
31 Mar 1.0 03:24:32 10° WSW 03:27:39 82° NNW 03:28:55 33° ENE visible
